Solomon, AZ

3:32 PM MST on December 07, 2016 (GMT -0700)
Safford Regional

Weather History for KSAD - December, 2012

Change the Weather History Date:

Thursday, December 13, 2012

  Actual Average Record
Temperature  
Mean Temperature 58 °F -  
Max Temperature 71 °F 59 °F 72 °F (1975)
Min Temperature 44 °F 29 °F 16 °F (1953)
Degree Days  
Heating Degree Days 8    
Growing Degree Days 8 (Base 50)    
Moisture  
Dew Point 26 °F    
Average Humidity 33    
Maximum Humidity 89    
Minimum Humidity 19    
Precipitation  
Precipitation 0.14 in - - ()
Sea Level Pressure  
Sea Level Pressure 29.86 in    
Wind  
Wind Speed 13 mph (SE)    
Max Wind Speed 22 mph    
Max Gust Speed 29 mph    
Visibility 10 miles    
Events Rain    
Averages and records for this station are not official NWS values.
T = Trace of Precipitation, MM = Missing Value Source: NWS Daily Summary

Daily Weather History Graph

Daily Weather History Graph

Search for Another Location

Airport or City:

Trip Planner

Search our weather history database for the weather conditions in past years. The results will help you decide how hot, cold, wet, or windy it might be!

Date:

Astronomy

Dec. 13, 2012 Rise Set
Actual Time 7:12 AM MST 5:13 PM MST
Civil Twilight 6:45 AM MST 5:40 PM MST
Nautical Twilight 6:14 AM MST 6:11 PM MST
Astronomical Twilight 5:44 AM MST 6:41 PM MST
Moon 7:25 AM MST (12/13) 5:58 PM MST (12/13)
Length of Visible Light 10h 55m
Length of Day
10h 00m
New Moon, 0% of the Moon is Illuminated
Dec 13
New Moon
Dec 19
First Quarter
Dec 28
Full
Jan 4
Last Quarter
Jan 11
New

Hourly Weather History & Observations

Time (MST) Temp. Windchill Dew Point Humidity Pressure Visibility Wind Dir Wind Speed Gust Speed Precip Events Conditions
12:51 AM 46.9 °F - 10.0 °F 22% 29.96 in 10.0 mi East 10.4 mph - N/A   Clear
1:51 AM 46.0 °F 40.2 °F 10.0 °F 23% 29.95 in 10.0 mi ESE 12.7 mph - N/A   Clear
2:51 AM 48.0 °F - 12.0 °F 24% 29.93 in 10.0 mi ESE 13.8 mph - N/A   Clear
3:51 AM 51.1 °F - 15.1 °F 24% 29.91 in 10.0 mi East 13.8 mph - N/A   Clear
4:51 AM 44.1 °F 39.0 °F 12.9 °F 28% 29.94 in 10.0 mi West 9.2 mph - N/A   Clear
5:51 AM 46.9 °F - 14.0 °F 27% 29.94 in 10.0 mi East 13.8 mph - N/A   Clear
6:51 AM 50.0 °F - 17.1 °F 27% 29.95 in 10.0 mi ESE 10.4 mph - N/A   Clear
7:51 AM 46.9 °F - 16.0 °F 29% 29.97 in 10.0 mi ESE 10.4 mph - N/A   Clear
8:51 AM 50.0 °F - 14.0 °F 24% 29.98 in 10.0 mi SE 15.0 mph - N/A   Clear
9:51 AM 60.1 °F - 24.1 °F 25% 29.96 in 10.0 mi East 16.1 mph - N/A   Clear
10:51 AM 63.0 °F - 27.0 °F 26% 29.93 in 10.0 mi ESE 12.7 mph 19.6 mph N/A   Clear
11:51 AM 66.9 °F - 30.0 °F 25% 29.88 in 10.0 mi ESE 12.7 mph 21.9 mph N/A   Clear
12:51 PM 69.1 °F - 30.0 °F 23% 29.83 in 10.0 mi ESE 11.5 mph 20.7 mph N/A   Mostly Cloudy
1:51 PM 71.1 °F - 30.0 °F 22% 29.81 in 10.0 mi South 20.7 mph - N/A   Scattered Clouds
2:51 PM 70.0 °F - 26.1 °F 19% 29.78 in 10.0 mi South 21.9 mph 28.8 mph N/A   Clear
3:51 PM 66.0 °F - 28.0 °F 24% 29.78 in 10.0 mi South 10.4 mph - N/A   Clear
4:51 PM 64.9 °F - 30.9 °F 28% 29.79 in 10.0 mi South 15.0 mph - N/A   Mostly Cloudy
5:51 PM 64.0 °F - 30.9 °F 29% 29.78 in 10.0 mi South 12.7 mph - N/A   Overcast
6:51 PM 62.1 °F - 30.9 °F 31% 29.77 in 10.0 mi SSE 8.1 mph - N/A   Overcast
7:51 PM 62.1 °F - 32.0 °F 32% 29.74 in 10.0 mi SE 9.2 mph - N/A   Overcast
8:51 PM 61.0 °F - 36.0 °F 39% 29.74 in 10.0 mi South 18.4 mph 25.3 mph 0.00 in Rain Light Rain
9:51 PM 53.1 °F - 46.0 °F 77% 29.78 in 7.0 mi SE 13.8 mph 25.3 mph 0.02 in Rain Light Rain
10:51 PM 51.1 °F - 48.0 °F 89% 29.77 in 10.0 mi East 10.4 mph - 0.10 in Rain Light Rain
11:51 PM 52.0 °F - 46.9 °F 83% 29.68 in 10.0 mi East 17.3 mph - 0.02 in   Overcast